• In Hungary
  • List of Countries
  • For 7 days
  • Water Temperature
  • Satellite Maps
  • Weather Map
  • News
  • Weather Widgets
  • user-avatar
    Login

    Hourly Weather Grachevo

    Today, 27 May, Sunday

    Time Temperature Precipitation Wind Pressure Humidity
    00:00 +10°C° 0 mm 2 mps 756 mmHg 84%
    01:00 +10°C° 0 mm 2 mps 756 mmHg 86%
    02:00 +9°C° 0 mm 2 mps 756 mmHg 90%
    03:00 +9°C° 0 mm 2 mps 756 mmHg 90%
    04:00 +9°C° 0 mm 2 mps 756 mmHg 89%
    05:00 +10°C° 0 mm 2 mps 756 mmHg 88%
    06:00 +13°C° 0 mm 2 mps 755 mmHg 83%
    07:00 +14°C° 0 mm 2 mps 755 mmHg 77%
    08:00 +16°C° 0 mm 2 mps 755 mmHg 72%
    09:00 +18°C° 0 mm 2 mps 755 mmHg 67%
    10:00 +19°C° 0 mm 2 mps 755 mmHg 62%
    11:00 +20°C° 0 mm 2 mps 755 mmHg 57%
    12:00 +20°C° 0 mm 2 mps 754 mmHg 56%
    13:00 +21°C° 0 mm 2 mps 754 mmHg 55%
    14:00 +21°C° 0 mm 2 mps 754 mmHg 54%
    15:00 +21°C° 0 mm 2 mps 753 mmHg 57%
    16:00 +21°C° 0 mm 2 mps 753 mmHg 59%
    17:00 +21°C° 0 mm 2 mps 753 mmHg 62%
    18:00 +20°C° 0 mm 2 mps 752 mmHg 68%
    19:00 +18°C° 0 mm 2 mps 752 mmHg 74%
    20:00 +16°C° 0 mm 1 mps 752 mmHg 80%
    21:00 +15°C° 0 mm 1 mps 752 mmHg 81%
    22:00 +15°C° 0 mm 1 mps 752 mmHg 82%
    23:00 +14°C° 0 mm 2 mps 753 mmHg 84%

    Tomorrow, 28 May, Monday

    Time Temperature Precipitation Wind Pressure Humidity
    00:00 +14°C° 0 mm 2 mps 753 mmHg 84%
    01:00 +14°C° 0 mm 2 mps 753 mmHg 85%
    02:00 +13°C° 0 mm 2 mps 753 mmHg 86%
    03:00 +14°C° 0 mm 2 mps 753 mmHg 87%
    04:00 +14°C° 0 mm 2 mps 754 mmHg 87%
    05:00 +14°C° 0 mm 2 mps 754 mmHg 88%
    06:00 +15°C° 0 mm 2 mps 754 mmHg 83%
    07:00 +17°C° 0 mm 2 mps 754 mmHg 79%
    08:00 +19°C° 0 mm 2 mps 755 mmHg 74%
    09:00 +20°C° 0 mm 3 mps 755 mmHg 70%
    10:00 +21°C° 0 mm 3 mps 755 mmHg 67%
    11:00 +22°C° 0 mm 4 mps 755 mmHg 63%
    12:00 +22°C° 0 mm 4 mps 755 mmHg 60%
    13:00 +22°C° 0 mm 4 mps 755 mmHg 57%
    14:00 +23°C° 0 mm 4 mps 755 mmHg 54%
    15:00 +22°C° 0 mm 4 mps 755 mmHg 55%
    16:00 +22°C° 0 mm 3 mps 755 mmHg 57%
    17:00 +21°C° 0 mm 3 mps 755 mmHg 59%
    18:00 +19°C° 0 mm 3 mps 755 mmHg 63%
    19:00 +17°C° 0 mm 3 mps 755 mmHg 67%
    20:00 +14°C° 0 mm 3 mps 755 mmHg 71%
    21:00 +13°C° 0 mm 3 mps 756 mmHg 71%
    22:00 +12°C° 0 mm 3 mps 756 mmHg 71%
    23:00 +11°C° 0 mm 3 mps 756 mmHg 71%

    Day after tomorrow, 29 May, Tuesday

    Time Temperature Precipitation Wind Pressure Humidity
    00:00 +10°C° 0 mm 3 mps 757 mmHg 73%
    01:00 +10°C° 0 mm 2 mps 757 mmHg 75%
    02:00 +9°C° 0 mm 2 mps 757 mmHg 77%
    03:00 +9°C° 0 mm 2 mps 757 mmHg 78%
    04:00 +9°C° 0 mm 2 mps 757 mmHg 80%
    05:00 +9°C° 0 mm 2 mps 756 mmHg 82%
    06:00 +12°C° 0 mm 2 mps 756 mmHg 76%
    07:00 +14°C° 0 mm 2 mps 756 mmHg 71%
    08:00 +16°C° 0 mm 2 mps 756 mmHg 66%
    09:00 +18°C° 0 mm 2 mps 756 mmHg 61%
    10:00 +19°C° 0 mm 2 mps 755 mmHg 57%
    11:00 +20°C° 0 mm 2 mps 755 mmHg 52%
    12:00 +21°C° 0 mm 2 mps 755 mmHg 51%
    13:00 +21°C° 0 mm 2 mps 754 mmHg 50%
    14:00 +23°C° 0 mm 2 mps 754 mmHg 49%
    15:00 +23°C° 0 mm 2 mps 753 mmHg 53%
    16:00 +23°C° 0 mm 2 mps 753 mmHg 56%
    17:00 +23°C° 0 mm 2 mps 752 mmHg 59%
    18:00 +20°C° 0 mm 2 mps 752 mmHg 65%
    19:00 +18°C° 0 mm 2 mps 752 mmHg 70%
    20:00 +16°C° 0 mm 2 mps 751 mmHg 76%
    21:00 +16°C° 0 mm 2 mps 751 mmHg 77%
    22:00 +15°C° 0 mm 2 mps 751 mmHg 78%
    23:00 +14°C° 0 mm 2 mps 751 mmHg 79%

    30 May, Wednesday

    Time Temperature Precipitation Wind Pressure Humidity
    00:00 +14°C° 0 mm 2 mps 750 mmHg 80%
    01:00 +14°C° 0 mm 2 mps 750 mmHg 81%
    02:00 +13°C° 0 mm 2 mps 750 mmHg 82%
    03:00 +13°C° 0 mm 2 mps 750 mmHg 83%
    04:00 +13°C° 0 mm 3 mps 749 mmHg 84%
    05:00 +13°C° 0 mm 3 mps 749 mmHg 85%
    06:00 +16°C° 0 mm 3 mps 749 mmHg 82%
    07:00 +18°C° 0 mm 3 mps 748 mmHg 79%
    08:00 +20°C° 0 mm 3 mps 748 mmHg 77%
    09:00 +21°C° 0 mm 4 mps 748 mmHg 73%
    10:00 +23°C° 0 mm 4 mps 747 mmHg 69%
    11:00 +26°C° 0 mm 4 mps 747 mmHg 65%
    12:00 +26°C° 0 mm 4 mps 746 mmHg 64%
    13:00 +27°C° 0 mm 5 mps 746 mmHg 62%
    14:00 +27°C° 0 mm 5 mps 746 mmHg 61%
    15:00 +27°C° 0.1 mm 5 mps 745 mmHg 63%
    16:00 +27°C° 0.1 mm 4 mps 745 mmHg 66%
    17:00 +26°C° 0.1 mm 4 mps 744 mmHg 69%
    18:00 +25°C° 0 mm 4 mps 744 mmHg 74%
    19:00 +22°C° 0 mm 3 mps 744 mmHg 79%
    20:00 +20°C° 0 mm 3 mps 743 mmHg 84%
    21:00 +20°C° 0 mm 3 mps 743 mmHg 86%
    22:00 +19°C° 0 mm 3 mps 743 mmHg 88%
    23:00 +18°C° 0 mm 3 mps 742 mmHg 90%

    31 May, Thursday

    Time Temperature Precipitation Wind Pressure Humidity
    00:00 +17°C° 0 mm 3 mps 742 mmHg 91%
    01:00 +17°C° 0 mm 3 mps 742 mmHg 92%
    02:00 +16°C° 0 mm 3 mps 742 mmHg 93%
    03:00 +16°C° 0 mm 3 mps 742 mmHg 92%
    04:00 +16°C° 0 mm 3 mps 742 mmHg 92%
    05:00 +14°C° 0 mm 3 mps 742 mmHg 91%
    06:00 +15°C° 0 mm 4 mps 742 mmHg 83%
    07:00 +17°C° 0 mm 4 mps 742 mmHg 75%
    08:00 +17°C° 0 mm 5 mps 742 mmHg 67%
    09:00 +17°C° 0 mm 5 mps 742 mmHg 62%
    10:00 +19°C° 0 mm 5 mps 742 mmHg 58%
    11:00 +19°C° 0 mm 5 mps 742 mmHg 53%
    12:00 +20°C° 0 mm 5 mps 742 mmHg 52%
    13:00 +20°C° 0 mm 5 mps 742 mmHg 50%
    14:00 +20°C° 0 mm 5 mps 742 mmHg 48%
    15:00 +19°C° 0 mm 4 mps 743 mmHg 52%
    16:00 +19°C° 0 mm 4 mps 743 mmHg 56%
    17:00 +19°C° 0 mm 4 mps 743 mmHg 60%
    18:00 +17°C° 0 mm 4 mps 743 mmHg 63%
    19:00 +15°C° 0 mm 4 mps 743 mmHg 67%
    20:00 +13°C° 0 mm 4 mps 743 mmHg 70%
    21:00 +12°C° 0 mm 4 mps 743 mmHg 70%
    22:00 +11°C° 0 mm 4 mps 744 mmHg 70%
    23:00 +10°C° 0 mm 3 mps 744 mmHg 69%

    1 June, Friday

    Time Temperature Precipitation Wind Pressure Humidity
    00:00 +9°C° 0 mm 3 mps 744 mmHg 69%
    01:00 +9°C° 0 mm 3 mps 744 mmHg 69%
    02:00 +8°C° 0 mm 3 mps 744 mmHg 69%
    03:00 +8°C° 0 mm 3 mps 745 mmHg 71%
    04:00 +8°C° 0 mm 3 mps 745 mmHg 72%
    05:00 +8°C° 0 mm 3 mps 745 mmHg 73%
    06:00 +9°C° 0 mm 3 mps 745 mmHg 69%
    07:00 +10°C° 0 mm 4 mps 746 mmHg 65%
    08:00 +11°C° 0 mm 4 mps 746 mmHg 61%
    09:00 +12°C° 0 mm 4 mps 746 mmHg 57%
    10:00 +13°C° 0 mm 4 mps 746 mmHg 53%
    11:00 +14°C° 0 mm 4 mps 746 mmHg 49%
    12:00 +14°C° 0 mm 4 mps 746 mmHg 49%
    13:00 +14°C° 0 mm 4 mps 746 mmHg 50%
    14:00 +14°C° 0 mm 4 mps 746 mmHg 50%
    15:00 +13°C° 0 mm 4 mps 746 mmHg 52%
    16:00 +13°C° 0 mm 4 mps 746 mmHg 53%
    17:00 +13°C° 0 mm 4 mps 746 mmHg 55%
    18:00 +11°C° 0 mm 4 mps 747 mmHg 59%
    19:00 +10°C° 0 mm 3 mps 747 mmHg 62%
    20:00 +8°C° 0 mm 3 mps 747 mmHg 66%
    21:00 +7°C° 0 mm 2 mps 747 mmHg 66%
    22:00 +6°C° 0 mm 2 mps 747 mmHg 67%
    23:00 +6°C° 0 mm 2 mps 748 mmHg 67%
    Show more